Location: Glencoe Junction
(41.7313°N, 110.5602°W)
Time: 09:11:24
(UTC+00:00)

Tiangong - Pass Details

Date: 30 January 2022
Orbit: 386 x 388 km, 41.5° (Epoch: 25 May)

Event Time Altitude Azimuth Distance (km) Brightness Sun altitude
Rises 01:41:54 0° 251° (WSW) 2,350 7.0 -12.8°
Reaches altitude 10° 01:44:01 10° 248° (WSW) 1,495 5.4 -13.2°
Maximum altitude 01:47:22 64° 166° (SSE) 472 1.4 -13.8°
Enters shadow 01:49:01 27° 93° (E) 839 2.2 -14.1°
